North Bennington, VT

9:29 PM EST on December 07, 2016 (GMT -0500)
Morse State

Weather History for KDDH - January, 2013

Change the Weather History Date:

Saturday, January 5, 2013

  Actual Average Record
Temperature  
Mean Temperature 28 °F 21 °F  
Max Temperature 36 °F 31 °F 39 °F (2015)
Min Temperature 19 °F 12 °F 2 °F (2016)
Degree Days  
Heating Degree Days 37 44  
Month to date heating degree days 242 216  
Since 1 July heating degree days 2687 2988  
Cooling Degree Days 0 0  
Month to date cooling degree days 0 0  
Year to date cooling degree days 0 0  
Moisture  
Dew Point 18 °F    
Average Humidity 57    
Maximum Humidity 73    
Minimum Humidity 41    
Precipitation  
Precipitation T in 0.11 in 0.00 in (2016)
Month to date precipitation T 0.57  
Year to date precipitation T 0.57  
Sea Level Pressure  
Sea Level Pressure 30.09 in    
Wind  
Wind Speed 8 mph (WSW)    
Max Wind Speed 6 mph    
Max Gust Speed 7 mph    
Visibility 10 miles    
Events      
T = Trace of Precipitation, MM = Missing Value Source: NWS Daily Summary

Daily Weather History Graph

Daily Weather History Graph

Search for Another Location

Airport or City:

Trip Planner

Search our weather history database for the weather conditions in past years. The results will help you decide how hot, cold, wet, or windy it might be!

Date:

Astronomy

Jan. 05, 2013 Rise Set
Actual Time 7:23 AM EST 4:33 PM EST
Civil Twilight 6:52 AM EST 5:05 PM EST
Nautical Twilight 6:16 AM EST 5:40 PM EST
Astronomical Twilight 5:42 AM EST 6:15 PM EST
Moon 12:22 AM EST (1/5) 11:26 AM EST (1/5)
Length of Visible Light 10h 13m
Length of Day
9h 09m
Last Quarter, 44% of the Moon is Illuminated
Jan 5
Last Quarter
Jan 11
New
Jan 18
First Quarter
Jan 26
Full
Feb 3
Last Quarter

Hourly Weather History & Observations

Time (EST) Temp. Windchill Dew Point Humidity Pressure Visibility Wind Dir Wind Speed Gust Speed Precip Events Conditions
12:33 AM 30.2 °F 20.2 °F 21.2 °F 69% 29.87 in 10.0 mi West 12.7 mph 20.7 mph N/A   Overcast
12:54 AM 30.9 °F 21.7 °F 21.9 °F 69% 29.90 in 10.0 mi West 11.5 mph 17.3 mph N/A   Overcast
1:54 AM 30.9 °F 21.2 °F 21.9 °F 69% 29.93 in 10.0 mi WSW 12.7 mph 20.7 mph N/A   Overcast
2:36 AM 30.2 °F 22.6 °F 21.2 °F 69% 29.90 in 9.0 mi West 8.1 mph 21.9 mph N/A   Overcast
2:47 AM 30.2 °F 22.6 °F 21.2 °F 69% 29.90 in 10.0 mi WSW 8.1 mph - N/A   Overcast
2:54 AM 30.9 °F 22.8 °F 21.9 °F 69% 29.93 in 10.0 mi West 9.2 mph - N/A   Overcast
3:29 AM 32.0 °F 23.6 °F 23.0 °F 69% 29.91 in 9.0 mi WNW 10.4 mph 16.1 mph N/A   Overcast
3:54 AM 32.0 °F 23.6 °F 23.0 °F 69% 29.95 in 8.0 mi West 10.4 mph 18.4 mph N/A   Overcast
4:54 AM 32.0 °F 22.1 °F 23.0 °F 69% 29.97 in 10.0 mi WSW 13.8 mph 20.7 mph 0.00 in   Overcast
5:54 AM 32.0 °F 23.6 °F 23.0 °F 69% 30.01 in 10.0 mi WSW 10.4 mph 18.4 mph N/A   Overcast
6:54 AM 32.0 °F 23.0 °F 23.0 °F 69% 30.04 in 10.0 mi WSW 11.5 mph 17.3 mph N/A   Overcast
7:54 AM 32.0 °F 23.6 °F 23.0 °F 69% 30.08 in 10.0 mi WSW 10.4 mph 16.1 mph N/A   Overcast
8:54 AM 32.0 °F 24.2 °F 23.0 °F 69% 30.13 in 10.0 mi West 9.2 mph - N/A   Overcast
9:54 AM 33.1 °F 27.7 °F 21.9 °F 64% 30.16 in 10.0 mi Variable 5.8 mph 20.7 mph N/A   Overcast
10:54 AM 34.0 °F 26.6 °F 18.0 °F 52% 30.18 in 10.0 mi NW 9.2 mph - N/A   Partly Cloudy
11:54 AM 35.1 °F 27.4 °F 17.1 °F 48% 30.19 in 10.0 mi NNW 10.4 mph - N/A   Mostly Cloudy
12:54 PM 34.0 °F 26.0 °F 14.0 °F 44% 30.20 in 10.0 mi WNW 10.4 mph 17.3 mph N/A   Partly Cloudy
1:54 PM 34.0 °F 27.2 °F 12.0 °F 40% 30.18 in 10.0 mi West 8.1 mph 16.1 mph N/A   Clear
2:54 PM 33.1 °F 27.7 °F 12.0 °F 42% 30.18 in 10.0 mi Variable 5.8 mph - N/A   Clear
3:54 PM 33.1 °F 27.7 °F 14.0 °F 46% 30.20 in 10.0 mi West 5.8 mph - N/A   Clear
4:54 PM 30.9 °F 25.2 °F 15.1 °F 52% 30.21 in 10.0 mi SW 5.8 mph - N/A   Clear
5:54 PM 30.0 °F 24.1 °F 15.1 °F 54% 30.23 in 10.0 mi SW 5.8 mph - N/A   Clear
6:54 PM 28.0 °F 22.8 °F 15.1 °F 58% 30.24 in 10.0 mi SSW 4.6 mph - N/A   Clear
7:54 PM 21.0 °F 16.2 °F 12.9 °F 71% 30.23 in 10.0 mi SW 3.5 mph - N/A   Clear
8:54 PM 19.9 °F 14.9 °F 12.9 °F 74% 30.22 in 10.0 mi East 3.5 mph - N/A   Clear
9:54 PM 19.9 °F 12.1 °F 12.9 °F 74% 30.21 in - ESE 5.8 mph - N/A   Unknown
10:54 PM 19.9 °F - 12.9 °F 74% 30.18 in 10.0 mi Calm Calm - N/A   Clear
11:54 PM 23.0 °F - 15.1 °F 72% 30.16 in 10.0 mi Calm Calm - N/A   Clear